Location: Wapato
(46.4478°N, 120.4212°W)
Time: 23:43:57
(UTC+00:00)

Vanguard 1 Rocket - Pass Details

Date: 19 May 2026
Orbit: 656 x 4211 km, 34.3° (Epoch: 7 June)

Event Time Altitude Azimuth Distance (km) Brightness Sun altitude
Rises 06:19:08 0° 270° (W) 6,974 12.2 -20.1°
Reaches altitude 10° 06:28:03 10° 248° (WSW) 6,674 11.8 -20.7°
Maximum altitude 06:36:02 13° 226° (SW) 6,844 11.6 -21.2°
Drops below altitude 10° 06:44:51 10° 206° (SSW) 7,369 11.6 -21.7°
Enters shadow 06:48:19 - 198° (SSW) 7,638 11.6 -21.9°
